Flag for Canada Weather past 2 weeks in Calgary, Alberta, Canada

Now
50 °F

Clear.


Feels Like: 46 °F
Forecast: 35 / 60 °F
Wind: 12 mph from West

Location: Calgary International

Current Time: Oct 22, 2014 at 1:22:36 AM

Latest Report: Oct 22, 2014 at 1:00 AM


Visibility: 15 mi

Pressure: 29.79 "Hg

Humidity: 37%

Dew point: 25 °F

Location of CalgaryLocation

Historic Weather in Calgary — Graph

°F

Calgary temperature yesterday

Maximum temperature yesterday: 61 °F (at 4:00 PM)
Minimum temperature yesterday: 45 °F (at 4:00 AM)
Average temperature yesterday: 51 °F

Past Weeks' High & Low Weather Summary

 TemperatureHumidityPressure
High73 °F (Oct 20, 2:00 PM)100% (Oct 16, 4:00 AM)30.23 "Hg (Oct 16, 4:00 AM)
Low30 °F (Oct 17, 8:00 AM)19% (Oct 20, 5:00 PM)29.55 "Hg (Oct 14, 10:00 AM)
Average50 °F55%29.87 "Hg
* Reported Midnight between Oct 6 and Oct 7 — Midnight between Oct 21 and Oct 22, Calgary, Weather by CustomWeather, © 2014

Note: Actual official high and low records may vary slightly from our data, if they occured in-between our weather recording intervals... More about our weather records

Advertising

Calgary weather history for previous 24 hours

 ConditionsComfort  
Time TempWeatherWind HumidityBarometerVisibility
12:00 AM
Oct 22
48 °FClear.6 mph43%29.80 "Hg15 mi
11:00 PM
Oct 21
45 °FPassing clouds.5 mph53%29.81 "Hg15 mi
10:00 PM46 °FPassing clouds.3 mph46%29.80 "Hg15 mi
9:00 PM50 °FPassing clouds.6 mph40%29.80 "Hg15 mi
8:00 PM52 °FPassing clouds.6 mph38%29.79 "Hg15 mi
7:00 PM54 °FBroken clouds.5 mph38%29.77 "Hg30 mi
6:00 PM57 °FBroken clouds.7 mph33%29.75 "Hg40 mi
5:00 PM59 °FBroken clouds.13 mph31%29.73 "Hg40 mi
4:00 PM61 °FPartly sunny.16 mph29%29.71 "Hg40 mi
3:00 PM59 °FBroken clouds.13 mph34%29.69 "Hg40 mi
2:00 PM59 °FPartly sunny.15 mph39%29.68 "Hg40 mi
1:00 PM57 °FPartly sunny.6 mph44%29.69 "Hg40 mi
12:00 PM55 °FMostly cloudy.5 mph47%29.69 "Hg40 mi
11:00 AM52 °FMostly cloudy.2 mph54%29.69 "Hg40 mi
10:00 AM50 °FPartly sunny.3 mph62%29.69 "Hg40 mi
9:00 AM48 °FPassing clouds.2 mph58%29.66 "Hg40 mi
8:00 AM46 °FOvercast.2 mph62%29.66 "Hg30 mi
7:00 AM46 °FPassing clouds.No wind62%29.65 "Hg15 mi
6:00 AM45 °FPassing clouds.5 mph66%29.65 "Hg15 mi
5:00 AM45 °FPassing clouds.9 mph61%29.65 "Hg15 mi
4:00 AM45 °FPassing clouds.6 mph61%29.62 "Hg15 mi
3:00 AM48 °FPassing clouds.No wind54%29.59 "Hg15 mi
2:00 AM50 °FPassing clouds.6 mph50%29.57 "Hg15 mi
1:00 AM50 °FPassing clouds.6 mph50%29.59 "Hg15 mi
Weather by CustomWeather, © 2014

See weather overviewHow to use our weather pages